KD8CJ Weather Reports


Display with metric or nautical units.
time (UTC)temp
F
wind
direction
speed
MPH
gust
MPH
rain 1hr
in
rain 24hr
in
rain mn
in
humidity
%
barometer
mb
20260506154521 54 101 0.0 5.0 0.00 1.58 0.83 72 1010.7
20260506153021 53 10 1.0 4.0 0.00 1.58 0.83 75 1010.8
20260506151533 53 264 1.0 3.0 0.00 1.58 0.83 78 1010.5
20260506150031 52 305 1.0 4.0 0.00 1.58 0.83 82 1010.3
20260506144529 50 267 0.0 5.0 0.00 1.58 0.83 86 1010.3
20260506143019 49 115 0.0 2.0 0.00 1.58 0.83 85 1010.2
20260506141502 48 138 1.0 3.0 0.00 1.58 0.83 89 1010.1
20260506140007 47 274 1.0 4.0 0.00 1.58 0.83 90 1010.0
20260506134503 47 263 0.0 4.0 0.00 1.58 0.83 91 1009.7
20260506133005 47 230 0.0 3.0 0.00 1.58 0.83 92 1009.8
20260506131508 47 264 0.0 2.0 0.00 1.58 0.83 92 1009.3
20260506130006 47 239 0.0 1.0 0.00 1.58 0.83 94 1008.8
20260506124505 46 239 0.0 1.0 0.00 1.58 0.83 94 1008.8
20260506123004 46 129 0.0 0.0 0.00 1.58 0.83 94 1009.0
20260506121507 46 129 0.0 3.0 0.00 1.58 0.83 94 1009.0
20260506120006 46 267 0.0 1.0 0.00 1.58 0.83 95 1008.5
20260506114508 46 130 0.0 1.0 0.00 1.58 0.83 95 1008.3
20260506113005 45 130 0.0 0.0 0.00 1.58 0.83 95 1008.3
20260506111509 45 130 0.0 3.0 0.00 1.58 0.83 95 1007.9
20260506110007 45 123 0.0 2.0 0.01 1.58 0.83 95 1008.4
20260506104504 45 102 0.0 1.0 0.01 1.58 0.83 95 1007.8
20260506103010 45 102 0.0 1.0 0.02 1.58 0.83 94 1007.0
20260506101509 45 150 0.0 1.0 0.06 1.58 0.83 94 1006.8
20260506100008 44 62 0.0 2.0 0.09 1.57 0.82 94 1007.0
20260506094515 45 143 0.0 1.0 0.13 1.57 0.82 94 1007.0
20260506093009 45 72 0.0 1.0 0.16 1.56 0.81 94 1007.5
20260506091507 45 77 0.0 1.0 0.14 1.52 0.77 94 1007.6
20260506090009 45 77 0.0 2.0 0.10 1.48 0.73 94 1007.6
20260506084516 45 162 0.0 2.0 0.10 1.44 0.69 94 1007.8
20260506083008 45 87 0.0 1.0 0.11 1.40 0.65 94 1007.4
20260506081508 45 44 0.0 4.0 0.13 1.38 0.63 94 1007.0
20260506073013 48 138 0.0 3.0 0.18 1.29 0.54 94 1007.0
20260506071515 48 58 0.0 3.0 0.16 1.25 0.50 94 1006.6
20260506061512 49 116 0.0 1.0 0.16 1.09 0.34 94 1006.7
20260506044518 50 249 0.0 1.0 0.22 0.87 0.12 93 1007.6
20260506043017 51 132 0.0 2.0 0.23 0.85 0.10 92 1007.9
20260506041525 51 350 0.0 3.0 0.24 0.82 0.07 92 1007.9
20260506040017 53 268 1.0 4.0 0.19 0.75 0.00 91 1008.0
20260506034518 55 250 0.0 1.0 0.11 0.65 0.65 91 1007.8
20260506033017 57 44 1.0 3.0 0.10 0.62 0.62 93 1007.5
20260506031524 58 238 0.0 0.0 0.06 0.58 0.58 94 1007.6
20260506030023 58 238 0.0 0.0 0.06 0.56 0.56 93 1007.7
20260506024520 58 238 0.0 1.0 0.05 0.54 0.54 93 1007.9
20260506023003 58 238 0.0 1.0 0.08 0.52 0.52 93 1008.1
20260506021506 58 243 0.0 1.0 0.08 0.52 0.52 93 1008.2
20260506020014 58 243 0.0 2.0 0.06 0.50 0.50 93 1008.0
20260506014519 58 262 0.0 2.0 0.05 0.49 0.49 93 1007.8
20260506013026 58 258 0.0 2.0 0.00 0.44 0.44 93 1007.5
20260506011504 57 194 0.0 1.0 0.00 0.44 0.44 93 1007.3
20260506010008 58 194 0.0 1.0 0.00 0.44 0.44 92 1007.3
20260506004519 58 191 0.0 2.0 0.00 0.44 0.44 92 1007.4
20260506003016 58 277 0.0 1.0 0.01 0.44 0.44 92 1007.4
20260506001520 58 278 0.0 1.0 0.02 0.44 0.44 91 1007.4
20260506000016 58 175 0.0 1.0 0.06 0.44 0.44 90 1007.4
20260505234517 58 175 0.0 0.0 0.38 0.44 0.44 90 1007.5
20260505233016 58 175 0.0 1.0 0.37 0.43 0.43 89 1007.8
20260505231522 59 307 0.0 4.0 0.36 0.42 0.42 87 1007.6
20260505230026 60 160 1.0 21.0 0.32 0.38 0.38 84 1007.9
20260505224507 67 310 1.0 3.0 0.00 0.06 0.06 68 1006.5
20260505223012 67 274 1.0 3.0 0.00 0.06 0.06 68 1006.6
20260505221516 67 240 1.0 3.0 0.00 0.06 0.06 68 1006.8
20260505220033 66 256 1.0 3.0 0.00 0.06 0.06 70 1006.8
20260505214541 66 243 0.0 2.0 0.00 0.06 0.06 72 1006.8
20260505213008 66 268 0.0 1.0 0.00 0.06 0.06 71 1007.0
20260505211512 65 205 0.0 1.0 0.00 0.06 0.06 74 1007.1
20260505210018 65 271 0.0 2.0 0.00 0.06 0.06 73 1007.2
20260505204530 65 252 1.0 4.0 0.00 0.06 0.06 73 1007.3
20260505203024 64 291 2.0 8.0 0.02 0.06 0.06 74 1007.5
20260505201512 64 147 3.0 10.0 0.02 0.06 0.06 76 1007.5
20260505200012 63 222 2.0 9.0 0.06 0.06 0.06 79 1007.4
20260505194519 62 287 3.0 9.0 0.06 0.06 0.06 78 1007.6
20260505193038 63 247 2.0 5.0 0.04 0.04 0.04 77 1007.7
20260505191523 66 288 0.0 5.0 0.04 0.04 0.04 71 1007.8
20260505190026 71 236 1.0 4.0 0.00 0.00 0.00 56 1007.4
20260505184518 70 249 1.0 4.0 0.00 0.00 0.00 58 1007.6
20260505183036 69 222 1.0 6.0 0.00 0.00 0.00 57 1008.0
20260505181524 69 252 0.0 3.0 0.00 0.00 0.00 59 1008.2
20260505180035 68 240 3.0 5.0 0.00 0.00 0.00 59 1008.3
20260505174515 68 293 1.0 6.0 0.00 0.00 0.00 60 1008.3
20260505173021 68 284 2.0 8.0 0.00 0.00 0.00 57 1008.2
20260505171529 69 245 2.0 8.0 0.00 0.00 0.00 58 1008.2
20260505170026 69 162 3.0 7.0 0.00 0.00 0.00 56 1008.2
20260505164535 70 229 3.0 10.0 0.00 0.00 0.00 55 1008.2
20260505163016 69 276 3.0 17.0 0.00 0.00 0.00 56 1008.2
20260505161520 69 300 3.0 12.0 0.00 0.00 0.00 57 1008.4